Date String (YYYY-MM-DD hh:mm:ss) UTC,Instrument flags,absolute air pressure of the measurement (hPa),sample flow rate (lpm),inlet stack bypass flow (lpm),air temperature of the measurement (°C),ambient temperature measured by the external sensor (°C),aerosol sample conditioner tube jacket temperature (°C),OPC LED temperature (°C),internal box temperature (°C),relative humidity of the measurement (%),span deviation,mass concentration of particles derived from Lorenz-Mie calculation of OPC scattering (μg/m³),mass concentration of particles derived from Lorenz-Mie calculation of OPC scattering (μg/m³),mass concentration of particles derived from Lorenz-Mie calculation of OPC scattering (μg/m³)
DateTimeUTC,F1_M11,P_M11,Q1_M11,Q2_M11,T1_M11,T2_M11,T3_M11,T4_M11,T5_M11,U1_M11,ZSPAN_M11,X0_M11,X2_M11,X1_M11
2024-01-10 21:00:00,SystemResetWarning,0810.7,5.01,000.00,019.0,018.6,000.0,027.2,020.2,5.4,0000.0,0003.56,0000.96,0000.58
2024-01-10 21:01:00,SystemResetWarning,0810.7,4.98,000.00,018.9,018.4,000.0,027.3,020.1,5.5,0000.0,0003.40,0000.99,0000.57
2024-01-10 21:02:00,SystemResetWarning,0810.8,5.01,000.00,018.8,018.1,000.0,027.3,020.0,5.6,0000.0,0002.76,0000.92,0000.57
2024-01-10 21:03:00,SystemResetWarning,0810.7,5.02,000.00,018.8,018.0,000.0,027.3,020.0,5.6,0000.0,0002.20,0000.89,0000.56
2024-01-10 21:04:00,SystemResetWarning,0810.7,4.99,000.00,018.8,017.8,000.0,027.3,020.0,5.7,0000.0,0002.06,0000.89,0000.57
2024-01-10 21:05:00,SystemResetWarning,0810.6,4.99,000.00,018.8,017.7,000.0,027.3,020.0,5.8,0000.0,0002.09,0000.91,0000.57
2024-01-10 21:06:00,SystemResetWarning,0810.5,5.01,000.00,018.8,017.9,000.0,027.3,020.3,5.9,0000.0,0001.85,0000.89,0000.55
2024-01-10 21:07:00,SystemResetWarning,0810.5,5.01,000.00,018.9,018.7,000.0,027.2,020.7,5.9,0000.0,0002.01,0000.85,0000.55
2024-01-10 21:08:00,SystemResetWarning,0810.5,4.98,000.00,019.0,019.2,000.0,027.2,020.8,5.9,0000.0,0002.41,0000.82,0000.54
2024-01-10 21:09:00,SystemResetWarning,0810.5,4.99,000.00,019.1,019.0,000.0,027.2,020.5,6.0,0000.0,0002.65,0000.85,0000.54
2024-01-10 21:10:00,SystemResetWarning,0810.8,5.02,000.00,019.0,018.7,000.0,027.3,020.3,6.0,0000.0,0002.81,0000.86,0000.53
2024-01-10 21:11:00,SystemResetWarning,0810.7,5.01,000.00,018.9,018.4,000.0,027.3,020.1,6.0,0000.0,0004.98,0000.88,0000.52
2024-01-10 21:12:00,SystemResetWarning,0810.8,4.98,000.00,018.8,018.2,000.0,027.3,020.0,6.0,0000.0,0005.21,0000.91,0000.51
2024-01-10 21:13:00,SystemResetWarning,0810.9,5.00,000.00,018.8,018.0,000.0,027.3,020.0,6.0,0000.0,0005.88,0000.93,0000.51
2024-01-10 21:14:00,SystemResetWarning,0810.7,5.01,000.00,018.8,017.8,000.0,027.3,020.1,6.1,0000.0,0009.34,0001.06,0000.52
2024-01-10 21:15:00,SystemResetWarning,0811.0,5.01,000.00,018.8,018.3,000.0,027.2,020.5,6.1,0000.0,0013.53,0001.23,0000.52
2024-01-10 21:16:00,SystemResetWarning,0810.8,4.99,000.00,019.0,019.1,000.0,027.2,020.9,6.0,0000.0,0014.60,0001.37,0000.52
2024-01-10 21:17:00,SystemResetWarning,0810.8,4.99,000.00,019.1,019.2,000.0,027.3,020.6,6.0,0000.0,0015.56,0001.56,0000.54
2024-01-10 21:18:00,SystemResetWarning,0810.8,4.99,000.00,019.0,018.9,000.0,027.3,020.4,6.1,0000.0,0015.55,0001.64,0000.54
2024-01-10 21:19:00,SystemResetWarning,0810.8,5.01,000.00,019.0,018.6,000.0,027.3,020.2,6.1,0000.0,0015.33,0001.71,0000.54
2024-01-10 21:20:00,SystemResetWarning,0810.7,5.01,000.00,018.9,018.3,000.0,027.3,020.0,6.1,0000.0,0015.26,0001.74,0000.56
2024-01-10 21:21:00,SystemResetWarning,0810.9,5.00,000.00,018.8,018.1,000.0,027.3,020.0,6.1,0000.0,0015.62,0001.80,0000.57
2024-01-10 21:22:00,SystemResetWarning,0810.9,5.00,000.00,018.8,017.9,000.0,027.3,020.0,6.1,0000.0,0015.43,0001.96,0000.60
2024-01-10 21:23:00,SystemResetWarning,0810.9,5.01,000.00,018.8,017.8,000.0,027.3,020.1,6.2,0000.0,0020.16,0002.23,0000.62
2024-01-10 21:24:00,SystemResetWarning,0811.0,5.00,000.00,018.9,018.2,000.0,027.3,020.5,6.1,0000.0,0024.46,0002.95,0000.68
2024-01-10 21:25:00,SystemResetWarning,0811.1,5.00,000.00,019.0,019.1,000.0,027.3,020.9,6.2,0000.0,0025.21,0003.29,0000.72
2024-01-10 21:26:00,SystemResetWarning,0811.1,4.98,000.00,019.1,019.2,000.0,027.3,020.7,6.1,0000.0,0021.77,0003.26,0000.72
2024-01-10 21:27:00,SystemResetWarning,0811.2,5.00,000.00,019.1,019.0,000.0,027.3,020.4,6.2,0000.0,0020.96,0003.19,0000.71
2024-01-10 21:28:00,SystemResetWarning,0811.1,5.01,000.00,019.0,018.7,000.0,027.3,020.2,6.3,0000.0,0021.11,0003.13,0000.71
2024-01-10 21:29:00,SystemResetWarning,0811.2,5.01,000.00,018.9,018.5,000.0,027.3,020.0,6.3,0000.0,0021.11,0003.13,0000.71
2024-01-10 21:30:00,SystemResetWarning,0811.3,5.00,000.00,018.9,018.3,000.0,027.3,020.0,6.4,0000.0,0021.65,0003.19,0000.73
2024-01-10 21:31:00,SystemResetWarning,0811.2,4.99,000.00,018.9,018.0,000.0,027.3,020.0,6.5,0000.0,0021.97,0003.21,0000.73
2024-01-10 21:32:00,SystemResetWarning,0811.1,5.00,000.00,018.9,017.8,000.0,027.3,020.0,6.4,0000.0,0022.30,0003.24,0000.73
2024-01-10 21:33:00,SystemResetWarning,0811.3,5.00,000.00,018.9,017.7,000.0,027.3,020.0,6.4,0000.0,0022.37,0003.20,0000.72
2024-01-10 21:34:00,SystemResetWarning,0811.1,5.00,000.00,018.8,017.6,000.0,027.3,020.0,6.5,0000.0,0018.14,0003.06,0000.71
2024-01-10 21:35:00,SystemResetWarning,0811.2,5.01,000.00,018.8,017.7,000.0,027.3,020.1,6.6,0000.0,0013.60,0002.36,0000.66
2024-01-10 21:36:00,SystemResetWarning,0811.2,5.01,000.00,018.9,018.3,000.0,027.3,020.6,6.6,0000.0,0011.16,0002.01,0000.63
2024-01-10 21:37:00,SystemResetWarning,0811.2,4.98,000.00,019.1,019.1,000.0,027.3,020.9,6.5,0000.0,0010.61,0001.97,0000.64
2024-01-10 21:38:00,SystemResetWarning,0811.2,5.00,000.00,019.1,019.1,000.0,027.3,020.5,6.4,0000.0,0010.09,0001.95,0000.63
2024-01-10 21:39:00,SystemResetWarning,0811.2,5.00,000.00,019.1,018.8,000.0,027.3,020.3,6.5,0000.0,0009.41,0001.96,0000.63
2024-01-10 21:40:00,SystemResetWarning,0811.2,5.00,000.00,019.0,018.5,000.0,027.3,020.1,6.5,0000.0,0009.49,0001.95,0000.63
2024-01-10 21:41:00,SystemResetWarning,0811.2,5.00,000.00,018.9,018.2,000.0,027.3,020.0,6.5,0000.0,0008.94,0001.78,0000.62
2024-01-10 21:42:00,SystemResetWarning,0811.2,5.00,000.00,018.9,018.0,000.0,027.3,020.0,6.6,0000.0,0008.59,0001.72,0000.61
2024-01-10 21:43:00,SystemResetWarning,0811.2,5.01,000.00,018.8,017.9,000.0,027.3,020.0,6.6,0000.0,0008.23,0001.61,0000.60
2024-01-10 21:44:00,SystemResetWarning,0811.4,5.01,000.00,018.8,017.8,000.0,027.3,020.1,6.6,0000.0,0007.73,0001.52,0000.59
2024-01-10 21:45:00,SystemResetWarning,0811.3,5.02,000.00,018.9,018.4,000.0,027.3,020.6,6.6,0000.0,0007.56,0001.47,0000.59
2024-01-10 21:46:00,SystemResetWarning,0811.4,5.00,000.00,019.1,019.2,000.0,027.3,020.9,6.6,0000.0,0007.09,0001.44,0000.59
2024-01-10 21:47:00,SystemResetWarning,0811.3,4.99,000.00,019.1,019.2,000.0,027.3,020.6,6.6,0000.0,0006.16,0001.28,0000.59
2024-01-10 21:48:00,SystemResetWarning,0811.2,4.98,000.00,019.1,019.0,000.0,027.3,020.3,6.6,0000.0,0005.35,0001.15,0000.58
2024-01-10 21:49:00,SystemResetWarning,0811.2,5.00,000.00,019.0,018.7,000.0,027.3,020.2,6.5,0000.0,0005.05,0001.15,0000.59
2024-01-10 21:50:00,SystemResetWarning,0811.2,5.01,000.00,018.9,018.4,000.0,027.3,020.0,6.5,0000.0,0004.98,0001.12,0000.59
2024-01-10 21:51:00,SystemResetWarning,0811.1,5.00,000.00,018.9,018.2,000.0,027.3,020.0,6.5,0000.0,0004.16,0001.07,0000.58
2024-01-10 21:52:00,SystemResetWarning,0811.2,5.00,000.00,018.9,018.1,000.0,027.3,020.0,6.5,0000.0,0004.03,0001.05,0000.59
2024-01-10 21:53:00,SystemResetWarning,0811.3,4.99,000.00,018.9,017.9,000.0,027.3,020.0,6.5,0000.0,0004.03,0001.05,0000.59
2024-01-10 21:54:00,SystemResetWarning,0811.2,5.00,000.00,018.9,017.7,000.0,027.3,020.0,6.5,0000.0,0004.05,0001.06,0000.61
2024-01-10 21:55:00,SystemResetWarning,0811.2,5.00,000.00,018.9,017.6,000.0,027.3,020.0,6.4,0000.0,0003.30,0001.08,0000.61
2024-01-10 21:56:00,SystemResetWarning,0811.2,4.99,000.00,018.9,017.7,000.0,027.3,020.2,6.4,0000.0,0003.06,0001.12,0000.61
2024-01-10 21:57:00,SystemResetWarning,0811.2,5.02,000.00,019.0,018.5,000.0,027.3,020.7,6.4,0000.0,0003.01,0001.12,0000.61
2024-01-10 21:58:00,SystemResetWarning,0811.3,5.01,000.00,019.1,019.1,000.0,027.3,020.9,6.4,0000.0,0003.23,0001.16,0000.63
2024-01-10 21:59:00,SystemResetWarning,0811.3,4.99,000.00,019.1,019.0,000.0,027.3,020.5,6.4,0000.0,0003.48,0001.19,0000.63
